| time (UTC) | temp F | wind direction | speed knots | gust knots | rain 1hr in | rain 24hr in | rain mn in | humidity % | barometer mb |
| 20260906050121 | 59 | 214 | 0.0 | 0.9 | 0.00 | 0.00 | 0.00 | 91 | 1012.5 |
| 20260906044557 | 59 | 214 | 0.0 | 0.0 | 0.00 | 0.00 | 0.00 | 91 | 1012.5 |
| 20260906043108 | 59 | 214 | 0.0 | 0.0 | 0.00 | 0.00 | 0.00 | 90 | 1012.5 |
| 20260906041555 | 59 | 214 | 0.0 | 0.9 | 0.00 | 0.00 | 0.00 | 90 | 1012.5 |
| 20260906040052 | 59 | 226 | 0.0 | 0.0 | 0.00 | 0.00 | 0.00 | 89 | 1012.3 |
| 20260906034551 | 59 | 226 | 0.0 | 0.0 | 0.00 | 0.00 | 0.00 | 90 | 1012.4 |
| 20260906033050 | 59 | 226 | 0.0 | 0.0 | 0.00 | 0.00 | 0.00 | 89 | 1012.3 |
| 20260906031549 | 59 | 226 | 0.0 | 0.0 | 0.00 | 0.00 | 0.00 | 89 | 1012.2 |
| 20260906030050 | 60 | 226 | 0.0 | 0.0 | 0.00 | 0.00 | 0.00 | 88 | 1012.2 |
| 20260906024545 | 60 | 226 | 0.0 | 0.0 | 0.00 | 0.00 | 0.00 | 88 | 1012.1 |
| 20260906023045 | 60 | 226 | 0.0 | 0.0 | 0.00 | 0.00 | 0.00 | 88 | 1012.0 |
| 20260906021604 | 61 | 226 | 0.0 | 0.0 | 0.00 | 0.00 | 0.00 | 87 | 1012.2 |
| 20260906020043 | 61 | 226 | 0.0 | 0.9 | 0.00 | 0.00 | 0.00 | 87 | 1012.1 |
| 20260906014543 | 61 | 229 | 0.0 | 0.0 | 0.00 | 0.00 | 0.00 | 86 | 1012.0 |
| 20260906013042 | 61 | 229 | 0.0 | 0.9 | 0.00 | 0.00 | 0.00 | 86 | 1011.9 |
| 20260906011540 | 62 | 229 | 0.0 | 0.9 | 0.00 | 0.00 | 0.00 | 85 | 1011.8 |
| 20260906010041 | 62 | 229 | 0.0 | 0.9 | 0.00 | 0.00 | 0.00 | 84 | 1011.5 |
| 20260906004541 | 63 | 229 | 0.0 | 0.0 | 0.00 | 0.00 | 0.00 | 83 | 1011.4 |
| 20260906003036 | 63 | 229 | 0.0 | 0.0 | 0.00 | 0.00 | 0.00 | 82 | 1011.3 |
| 20260906001535 | 64 | 229 | 0.0 | 0.0 | 0.00 | 0.00 | 0.00 | 81 | 1011.2 |
| 20260906000034 | 65 | 229 | 0.0 | 0.0 | 0.00 | 0.00 | 0.00 | 79 | 1011.0 |
| 20260905234534 | 66 | 229 | 0.0 | 0.9 | 0.00 | 0.00 | 0.00 | 78 | 1010.9 |
| 20260905233033 | 66 | 229 | 0.0 | 0.9 | 0.00 | 0.00 | 0.00 | 76 | 1010.9 |
| 20260905231533 | 67 | 229 | 0.0 | 1.7 | 0.00 | 0.00 | 0.00 | 76 | 1010.7 |
| 20260905230032 | 68 | 229 | 0.0 | 1.7 | 0.00 | 0.00 | 0.00 | 76 | 1010.7 |
| 20260905224535 | 68 | 229 | 0.0 | 0.9 | 0.00 | 0.00 | 0.00 | 73 | 1010.7 |
| 20260905223035 | 68 | 229 | 0.0 | 1.7 | 0.00 | 0.00 | 0.00 | 73 | 1010.6 |
| 20260905221531 | 69 | 229 | 0.9 | 1.7 | 0.00 | 0.00 | 0.00 | 72 | 1010.7 |
| 20260905220030 | 70 | 228 | 0.0 | 1.7 | 0.00 | 0.00 | 0.00 | 70 | 1010.5 |
| 20260905214529 | 70 | 252 | 0.0 | 2.6 | 0.00 | 0.00 | 0.00 | 67 | 1010.5 |
| 20260905213029 | 71 | 234 | 0.9 | 2.6 | 0.00 | 0.00 | 0.00 | 67 | 1010.3 |
| 20260905211528 | 71 | 298 | 0.0 | 2.6 | 0.00 | 0.00 | 0.00 | 65 | 1010.4 |
| 20260905210036 | 72 | 308 | 0.9 | 3.5 | 0.00 | 0.00 | 0.00 | 61 | 1010.1 |
| 20260905204528 | 72 | 319 | 0.9 | 3.5 | 0.00 | 0.00 | 0.00 | 62 | 1010.1 |
| 20260905203027 | 72 | 338 | 0.9 | 1.7 | 0.00 | 0.00 | 0.00 | 62 | 1010.0 |
| 20260905201535 | 72 | 302 | 0.9 | 4.3 | 0.00 | 0.00 | 0.00 | 59 | 1010.1 |
| 20260905200038 | 73 | 323 | 0.9 | 3.5 | 0.00 | 0.00 | 0.00 | 59 | 1010.0 |
| 20260905194525 | 73 | 276 | 0.9 | 3.5 | 0.00 | 0.00 | 0.00 | 58 | 1009.9 |
| 20260905193029 | 73 | 297 | 0.9 | 3.5 | 0.00 | 0.00 | 0.00 | 58 | 1010.0 |
| 20260905191525 | 73 | 185 | 0.9 | 3.5 | 0.00 | 0.00 | 0.00 | 59 | 1010.0 |
| 20260905190024 | 73 | 278 | 1.7 | 3.5 | 0.00 | 0.00 | 0.00 | 57 | 1010.1 |
| 20260905184531 | 73 | 169 | 1.7 | 3.5 | 0.00 | 0.00 | 0.00 | 57 | 1010.2 |
| 20260905183027 | 72 | 113 | 0.0 | 2.6 | 0.00 | 0.00 | 0.00 | 63 | 1010.3 |
| 20260905181523 | 72 | 302 | 1.7 | 3.5 | 0.00 | 0.00 | 0.00 | 61 | 1010.3 |
| 20260905180021 | 73 | 62 | 0.0 | 2.6 | 0.00 | 0.00 | 0.00 | 59 | 1010.5 |
| 20260905174530 | 74 | 154 | 0.9 | 4.3 | 0.00 | 0.00 | 0.00 | 57 | 1010.4 |
| 20260905173024 | 73 | 318 | 0.0 | 1.7 | 0.00 | 0.00 | 0.00 | 60 | 1010.4 |
| 20260905171518 | 73 | 294 | 0.9 | 3.5 | 0.00 | 0.00 | 0.00 | 61 | 1010.5 |
| 20260905170016 | 73 | 250 | 1.7 | 3.5 | 0.00 | 0.00 | 0.00 | 61 | 1010.5 |
| 20260905164514 | 72 | 322 | 0.9 | 2.6 | 0.00 | 0.00 | 0.00 | 67 | 1010.7 |
| 20260905163013 | 72 | 293 | 1.7 | 4.3 | 0.00 | 0.00 | 0.00 | 62 | 1010.9 |
| 20260905161511 | 71 | 220 | 0.9 | 3.5 | 0.00 | 0.00 | 0.00 | 66 | 1011.1 |
| 20260905160013 | 70 | 324 | 0.0 | 3.5 | 0.00 | 0.00 | 0.00 | 72 | 1011.1 |
| 20260905154504 | 69 | 236 | 0.9 | 3.5 | 0.00 | 0.00 | 0.00 | 70 | 1011.0 |
| 20260905153003 | 68 | 279 | 0.9 | 3.5 | 0.00 | 0.00 | 0.00 | 73 | 1010.9 |
| 20260905151502 | 68 | 268 | 0.9 | 3.5 | 0.00 | 0.00 | 0.00 | 72 | 1010.9 |
| 20260905150051 | 68 | 305 | 0.9 | 3.5 | 0.00 | 0.00 | 0.00 | 74 | 1010.9 |
| 20260905144552 | 67 | 275 | 0.9 | 6.1 | 0.00 | 0.00 | 0.00 | 74 | 1010.9 |
| 20260905143047 | 67 | 77 | 0.9 | 6.1 | 0.00 | 0.00 | 0.00 | 77 | 1010.8 |
| 20260905141607 | 66 | 308 | 0.9 | 3.5 | 0.00 | 0.00 | 0.00 | 77 | 1010.8 |
| 20260905140054 | 66 | 297 | 1.7 | 6.1 | 0.00 | 0.00 | 0.00 | 77 | 1010.9 |
| 20260905134547 | 65 | 331 | 0.9 | 2.6 | 0.00 | 0.00 | 0.00 | 80 | 1010.7 |
| 20260905133051 | 65 | 167 | 1.7 | 3.5 | 0.00 | 0.00 | 0.00 | 80 | 1010.7 |
| 20260905131552 | 64 | 278 | 0.0 | 2.6 | 0.00 | 0.00 | 0.00 | 84 | 1010.6 |
| 20260905130037 | 63 | 261 | 0.0 | 2.6 | 0.00 | 0.00 | 0.00 | 87 | 1010.5 |
| 20260905124536 | 62 | 197 | 0.9 | 2.6 | 0.00 | 0.00 | 0.00 | 88 | 1010.6 |
| 20260905123034 | 61 | 268 | 0.9 | 2.6 | 0.00 | 0.00 | 0.00 | 92 | 1010.8 |
| 20260905121534 | 61 | 251 | 0.0 | 1.7 | 0.00 | 0.00 | 0.00 | 93 | 1010.8 |
| 20260905120037 | 60 | 251 | 0.0 | 0.9 | 0.00 | 0.00 | 0.00 | 92 | 1010.8 |
| 20260905114555 | 60 | 252 | 0.0 | 0.0 | 0.00 | 0.00 | 0.00 | 92 | 1010.6 |
| 20260905113031 | 60 | 252 | 0.0 | 0.9 | 0.00 | 0.00 | 0.00 | 91 | 1010.5 |
| 20260905111531 | 60 | 252 | 0.0 | 0.0 | 0.00 | 0.00 | 0.00 | 91 | 1010.4 |
| 20260905110032 | 61 | 252 | 0.0 | 0.9 | 0.00 | 0.00 | 0.00 | 91 | 1010.3 |
| 20260905104533 | 61 | 252 | 0.0 | 1.7 | 0.00 | 0.00 | 0.00 | 91 | 1010.1 |
| 20260905103034 | 60 | 252 | 0.0 | 1.7 | 0.00 | 0.00 | 0.00 | 91 | 1009.8 |
| 20260905101529 | 60 | 252 | 0.9 | 1.7 | 0.00 | 0.00 | 0.00 | 92 | 1009.6 |
| 20260905100029 | 60 | 252 | 0.0 | 0.0 | 0.00 | 0.00 | 0.00 | 91 | 1009.6 |
| 20260905094525 | 61 | 252 | 0.0 | 0.0 | 0.00 | 0.00 | 0.00 | 91 | 1009.4 |
| 20260905093029 | 61 | 252 | 0.0 | 0.0 | 0.00 | 0.00 | 0.00 | 91 | 1009.4 |
| 20260905091523 | 61 | 252 | 0.0 | 0.9 | 0.00 | 0.00 | 0.00 | 91 | 1009.3 |
| 20260905090022 | 62 | 252 | 0.0 | 0.0 | 0.00 | 0.00 | 0.00 | 91 | 1009.3 |
| 20260905084519 | 62 | 252 | 0.0 | 0.0 | 0.00 | 0.00 | 0.00 | 90 | 1009.4 |
| 20260905083018 | 62 | 252 | 0.0 | 0.0 | 0.00 | 0.00 | 0.00 | 91 | 1009.4 |
| 20260905081517 | 63 | 252 | 0.0 | 0.0 | 0.00 | 0.00 | 0.00 | 91 | 1009.6 |
| 20260905080021 | 63 | 252 | 0.0 | 0.0 | 0.00 | 0.00 | 0.00 | 91 | 1009.7 |
| 20260905074517 | 63 | 252 | 0.0 | 0.0 | 0.00 | 0.00 | 0.00 | 91 | 1009.8 |
| 20260905073012 | 63 | 252 | 0.0 | 0.0 | 0.00 | 0.00 | 0.00 | 91 | 1009.7 |
| 20260905071511 | 63 | 252 | 0.0 | 0.0 | 0.00 | 0.00 | 0.00 | 90 | 1009.8 |
| 20260905070008 | 64 | 252 | 0.0 | 0.0 | 0.00 | 0.00 | 0.00 | 91 | 1009.9 |
| 20260905064507 | 64 | 252 | 0.0 | 0.0 | 0.00 | 0.00 | 0.00 | 91 | 1009.9 |
| 20260905063005 | 64 | 252 | 0.0 | 0.0 | 0.00 | 0.00 | 0.00 | 91 | 1010.0 |
| 20260905061502 | 64 | 252 | 0.0 | 0.0 | 0.00 | 0.00 | 0.00 | 91 | 1010.2 |
| 20260905060006 | 64 | 252 | 0.0 | 0.0 | 0.00 | 0.00 | 0.00 | 91 | 1010.2 |
| 20260905054604 | 64 | 252 | 0.0 | 0.0 | 0.00 | 0.00 | 0.00 | 90 | 1010.4 |
| 20260905053059 | 65 | 252 | 0.0 | 0.0 | 0.00 | 0.00 | 0.00 | 90 | 1010.6 |
| 20260905051609 | 65 | 252 | 0.0 | 0.0 | 0.00 | 0.00 | 0.00 | 91 | 1010.7 |